Location: Alsip
(41.6689°N, 87.7387°W)
Time: 01:18:17
(UTC+00:00)

NOSS 3-2 (A) - Visible Passes

Search period start: 24 October 2020 00:00
Search period end: 03 November 2020 00:00
Orbit: 795 x 1413 km, 63.4° (Epoch: 02 October)

Date Brightness Start Highest point End Pass type
(mag) Time Alt. Az. Time Alt. Az. Time Alt. Az.
24 Oct 4.0 09:13:56 51° ENE 09:13:56 51° ENE 09:18:47 10° NE visible
24 Oct 4.6 11:01:22 19° WNW 11:04:02 26° NW 11:09:26 10° NNE visible
25 Oct 5.3 08:30:22 24° ENE 08:30:22 24° ENE 08:33:04 10° NE visible
25 Oct 4.0 10:17:47 36° NW 10:18:10 36° NW 10:24:10 10° NNE visible
26 Oct 6.2 07:46:44 11° ENE 07:46:44 11° ENE 07:47:00 10° ENE visible
26 Oct 4.1 09:34:08 43° N 09:34:08 43° N 09:38:50 10° NNE visible
26 Oct 5.1 11:21:33 11° WNW 11:25:02 17° NNW 11:29:10 10° NNE visible
27 Oct 5.0 08:50:26 28° NE 08:50:26 28° NE 08:53:25 10° NE visible
27 Oct 4.7 10:37:50 21° NW 10:38:55 22° NNW 10:43:55 10° NNE visible
28 Oct 5.9 08:06:41 16° NE 08:06:41 16° NE 08:07:50 10° NE visible
28 Oct 4.6 09:54:05 28° NNW 09:54:05 28° NNW 09:58:40 10° NNE visible
28 Oct 5.5 11:43:43 10° NW 11:46:21 12° N 11:49:08 10° NNE visible
29 Oct 5.0 09:10:18 26° N 09:10:18 26° N 09:13:22 10° NNE visible
29 Oct 5.3 10:57:42 12° NW 11:00:02 15° NNW 11:03:41 10° NNE visible
30 Oct 5.7 08:26:28 18° NNE 08:26:28 18° NNE 08:28:00 10° NNE visible
30 Oct 5.1 10:13:52 19° NNW 10:13:52 19° NNW 10:18:24 10° NNE visible
31 Oct 5.2 09:30:01 21° N 09:30:01 21° N 09:33:09 10° NNE visible
31 Oct 5.6 11:19:08 10° NNW 11:21:27 12° N 11:23:51 10° NNE visible
01 Nov 5.6 08:46:08 17° NNE 08:46:08 17° NNE 08:47:53 10° NNE visible
01 Nov 5.4 10:33:32 12° NNW 10:35:04 13° NNW 10:38:15 10° NNE visible
02 Nov 6.2 08:02:14 11° NNE 08:02:14 11° NNE 08:02:34 10° NNE visible
02 Nov 5.4 09:49:38 16° NNW 09:49:38 16° NNW 09:52:54 10° NNE visible
02 Nov 5.7 11:40:35 10° NNW 11:43:00 12° N 11:45:31 10° NNE visible
